Weather in Otradnenskoye

Russia / Novosibirsk Oblast     55°31′44″N   78°32′57″E
temp.,
°C
wind,
m/s
gust,
m/s
humid.,
%
clouds,
%
prec.,
mm/h
press.,
hPa
HPBL,
m
29 july, thu
thu2901:00+14s4106661 0.0 1007155
04:00+16s4115568 0.0 1006275
07:00+16ssw51156100 0.0 1006380
10:00+15wsw248999 0.8 1007330
13:00+20w685062 0.9 10072011
16:00+21wnw56425 0.0 10072119
19:00+20nw45455 0.0 10081952
22:00+14nnw33660 0.0 100927
30 july, fri
fri3001:00+11ne33802 0.0 101040
04:00+9e22835 0.0 101010
07:00+11s347856 0.0 101178
10:00+16s575983 0.0 1011355
13:00+21sw683967 0.0 10112121
16:00+21wsw6842100 0.0 10112628
19:00+21wsw4851100 0.0 10121380
22:00+15wnw1172100 0.0 101311
31 july, sat
sat3101:00+14sse3469100 0.0 101256
04:00+16ssw61654100 0.0 1011377
07:00+17ssw61648100 0.0 1011528
10:00+18ssw71250100 0.0 1011516
13:00+17ssw2967100 0.0 1011841
16:00+18sw51059100 0.0 1010826
19:00+21sw576277 0.0 10101138
22:00+18s3575100 0.3 101088
1 august, sun
sun101:00+17sw367386 0.3 1010133
04:00+16nw2284100 0.0 101033
07:00+15nne35945 0.0 1011155
10:00+19ne447940 0.0 1011595
13:00+21nne436637 0.0 10111037
16:00+23ne3357100 0.0 10101188
19:00+23ne2355100 0.0 10101091
22:00+17ne337264 0.0 101021
2 august, mon
mon201:00+14e3376100 0.0 100927
04:00+13se33904 0.0 100830
07:00+14se23875 0.0 100763
10:00+21sse346513 0.0 1006449
13:00+19ssw3579100 0.1 1005236
16:00+19se248469 1.3 1004337
19:00+22wnw2374100 3.7 1003668
22:00+17nnw349383 2.0 100462